一网星座-0367星 (ONEWEB-0367 )

导读

ONEWEB-0367是英国OneWeb星座的低轨通信卫星,于2021年10月14日发射入轨。该卫星隶属于OneWeb一期低轨卫星互联网星座,运行在1200公里近地轨道,单星重量约147.5公斤,设计寿命5年,采用Ku/Ka波段提供互联网接入服务,单星通信能力约7.5Gbps,可为用户提供最高50Mbps的下载速率,是OneWeb实现全球宽带覆盖的重要组成部分,卫星符合空间碎片减缓规范,寿命末期将自动离轨。

基本信息
目录编号:
49293
目录名称:
ONEWEB-0367
国际标识:
2021-090Q
轨道中心:
EARTH
卫星名称:
一网星座-0367星
卫星全名:
一网星座-0367星 (ONEWEB-0367 )
卫星状态:
在轨 (已飞行1794 天)
发射日期:
2021-10-14 UTC
国别 :
英国 (GB)
星等 :
--
该卫星已列入 空间交会检测服务 Space Conjunction Data Service (SCDS) ,当前飞行风险评估等级: 无高风险
轨道信息
数据来源 国际轨道数据 AOE轨道数据
星历时间 2026-09-11T20:37:18+0800
19小时前
查看轨道信息
2026-09-06T23:00:00+0800
5天前
查看轨道信息
半长轴 7559.908km 7559.896km
偏心率 0.0001981 0.0001958
轨道倾角 87.913° 87.914°
近地点辐角 84.875° 85.335°
升交点赤经 257.220° 258.199°
平近点角 275.261° 25.478°
近地点 1180.273km 1180.278km
远地点 1183.269km 1183.24km
周期 109.027分钟 109.027分钟
每日圈数 13.207725 13.207756
详细信息
平衡模式:
三轴稳定
覆盖范围:
全球
运营商:
一网卫星公司
运营商所在国:
英国
制造商(研发单位):
一网卫星公司
制造商所在国:
英国
使用方式:
暂无
卫星简介
OneWeb卫星网络由648颗重约125公斤的微型卫星组成,运行在1200公里的轨道上。 每颗卫星都能够提供至少每秒8千兆位的吞吐量,以使用其高吞吐量的Ku频段有效载荷为家庭和移动平台提供互联网接入。该卫星仍在工作。
2D轨道图
3D轨道图
轨道高度分析图
轨道倾角分析图
轨道综合分析图
查看轨道综合分析图
交会数据列表
事件ID 空间交会对象 最接近时刻(TCA) 交会距离 交会风险概率(CRP) 交会风险指数(CRI) 操作
CDM_260912-171902-149604-929324
2026-09-12T
17:19:09+0000
2.862 km
极远距离
1.352146E-6 低风险 0.38
与全量物体交会距离演化趋势
与全量物体交会风险概率演化趋势